This is the latest recevied weather packets stored in our database for station/object W5MAI. If no packets are shown the sender has not sent any weather packets the latest 10 day(s).
| Time | Temp. | Humidity | Pressure | Rain* | Wind** | Luminosity | Snow |
|---|---|---|---|---|---|---|---|
| 1777569849 | 18.89° C | 85% | 1014.2 hPa | 0 mm | - | 86 W/m² | - |
| 1777569206 | 19.44° C | 85% | 1014.4 hPa | 0 mm | - | 169 W/m² | - |
| 1777568629 | 19.44° C | 84% | 1014.6 hPa | 0 mm | - | 156 W/m² | - |
| 1777568062 | 19.44° C | 86% | 1014.7 hPa | 0 mm | - | 142 W/m² | - |
| 1777567414 | 19.44° C | 86% | 1014.7 hPa | 0 mm | - | 186 W/m² | - |
| 1777566853 | 18.89° C | 87% | 1014.8 hPa | 0 mm | - | 202 W/m² | - |
| 1777566221 | 18.89° C | 87% | 1014.7 hPa | 0 mm | - | 241 W/m² | - |
| 1777565644 | 18.33° C | 88% | 1014.5 hPa | 0 mm | - | 137 W/m² | - |
| 1777565013 | 17.78° C | 88% | 1014.6 hPa | 0 mm | - | 202 W/m² | - |
| 1777564448 | 17.78° C | 89% | 1014.8 hPa | 0 mm | - | 100 W/m² | - |
| 1777563862 | 17.78° C | 88% | 1014.9 hPa | 0 mm | - | 88 W/m² | - |
| 1777562024 | 17.22° C | 90% | 1014.2 hPa | 0 mm | - | 148 W/m² | - |
| 1777561457 | 17.22° C | 90% | 1014.3 hPa | 0 mm | - | 109 W/m² | - |
| 1777560821 | 17.22° C | 90% | 1014.8 hPa | 0 mm | - | 67 W/m² | - |
| 1777560241 | 17.22° C | 91% | 1014.5 hPa | 0 mm | - | 84 W/m² | - |
| 1777559613 | 17.22° C | 91% | 1014.6 hPa | 0 mm | - | 58 W/m² | - |
| 1777559039 | 17.22° C | 91% | 1014.6 hPa | 0 mm | - | 56 W/m² | - |
| 1777558414 | 17.22° C | 91% | 1014.5 hPa | 0 mm | - | 63 W/m² | - |
| 1777557820 | 17.22° C | 91% | 1014.5 hPa | 0 mm | - | 62 W/m² | - |
| 1777557256 | 16.67° C | 92% | 1014.3 hPa | 0 mm | - | 65 W/m² | - |
| 1777556630 | 16.67° C | 93% | 1014.2 hPa | 0 mm | - | 118 W/m² | - |
| 1777556049 | 16.67° C | 93% | 1014.1 hPa | 0 mm | - | 116 W/m² | - |
| 1777555403 | 16.11° C | 94% | 1014 hPa | 0 mm | - | 76 W/m² | - |
| 1777554229 | 16.11° C | 94% | 1014.1 hPa | 0 mm | - | 30 W/m² | - |
| 1777553658 | 16.11° C | 94% | 1014.3 hPa | 0 mm | - | 23 W/m² | - |
* Rain latest hour (hover to see other rain measurements)
** Current wind speed in m/s (hover to see current wind gust speed)